Flag for Australia Weather past 2 weeks in Mount Isa, Queensland, Australia

Now
77 °F

Clear.


Feels Like: 76 °F
Forecast: 63 / 91 °F
Wind: 12 mph from Southeast

Location: Mount Isa Amo

Current Time: Sep 18, 2014 at 10:39:08 PM

Latest Report: Sep 18, 2014 at 10:00 PM


Visibility: N/A

Pressure: 30.09 "Hg

Humidity: 13%

Dew point: 23 °F

Location of Mount IsaLocation

Historic Weather in Mount Isa — Graph

°F

Mount Isa temperature yesterday

Maximum temperature yesterday: 93 °F (at 2:30 PM)
Minimum temperature yesterday: 59 °F (at 1:00 AM)
Average temperature yesterday: 78 °F

Past Weeks' High & Low Weather Summary

 TemperatureHumidityPressure
High97 °F (Sep 9, 3:00 PM)81% (Sep 4, 6:00 AM)30.15 "Hg (Sep 4, 6:00 AM)
Low37 °F (Sep 4, 5:30 AM)2% (Sep 4, 4:30 PM)29.89 "Hg (Sep 4, 4:00 PM)
Average75 °F19%30.01 "Hg
* Reported Sep 3 9:00 PM — Sep 18 9:00 PM, Mount Isa, Weather by CustomWeather, © 2014

Note: Actual official high and low records may vary slightly from our data, if they occured in-between our weather recording intervals... More about our weather records

Advertising

Mount Isa weather history for previous 24 hours

 ConditionsComfort  
Time TempWeatherWind HumidityBarometerVisibility
9:00 PM
Sep 18
79 °FClear.9 mph15%30.07 "HgN/A
8:30 PM81 °FClear.9 mph12%30.07 "HgN/A
8:00 PM81 °FClear.10 mph13%30.04 "HgN/A
7:30 PM82 °FClear.9 mph11%30.04 "HgN/A
7:00 PM82 °FClear.10 mph13%30.01 "HgN/A
6:30 PM84 °FClear.10 mph13%30.01 "HgN/A
6:00 PM86 °FClear.13 mph11%30.01 "HgN/A
5:30 PM88 °FSunny.12 mph9%29.98 "HgN/A
5:00 PM90 °FSunny.10 mph9%29.98 "HgN/A
4:30 PM90 °FSunny.12 mph9%29.98 "HgN/A
4:00 PM90 °FSunny.9 mph9%29.98 "HgN/A
3:30 PM88 °FSunny.13 mph12%30.01 "HgN/A
3:00 PM90 °FSunny.12 mph9%30.01 "Hg10 mi
2:30 PM90 °FSunny.6 mph11%30.01 "HgN/A
2:00 PM88 °FSunny.9 mph10%30.04 "Hg10 mi
1:30 PM88 °FSunny.12 mph12%30.04 "HgN/A
1:00 PM88 °FSunny.10 mph11%30.07 "Hg10 mi
12:30 PM86 °FSunny.12 mph12%30.09 "HgN/A
12:00 PM84 °FSunny.14 mph12%30.09 "HgN/A
11:30 AM84 °FSunny.10 mph13%30.12 "HgN/A
11:00 AM81 °FSunny.13 mph15%30.12 "Hg10 mi
10:30 AM79 °FSunny.13 mph16%30.15 "HgN/A
10:00 AM77 °FSunny.15 mph17%30.15 "Hg10 mi
9:30 AM75 °FSunny.17 mph19%30.15 "HgN/A
9:00 AM73 °FSunny.15 mph20%30.15 "Hg10 mi
8:30 AM72 °FSunny.15 mph22%30.15 "HgN/A
8:00 AM72 °FSunny.10 mph23%30.15 "Hg10 mi
7:30 AM68 °FSunny.6 mph28%30.15 "HgN/A
7:00 AM66 °FSunny.7 mph28%30.12 "Hg10 mi
6:30 AM64 °FSunny.10 mph34%30.12 "HgN/A
6:00 AM68 °FSunny.10 mph28%30.09 "Hg10 mi
5:30 AM68 °FClear.10 mph28%30.09 "HgN/A
5:00 AM68 °FClear.12 mph28%30.09 "HgN/A
4:30 AM70 °FClear.12 mph25%30.09 "HgN/A
4:00 AM70 °FClear.8 mph23%30.09 "HgN/A
3:30 AM72 °FClear.8 mph22%30.07 "HgN/A
3:00 AM72 °FClear.12 mph17%30.07 "HgN/A
2:30 AM72 °FClear.7 mph17%30.07 "HgN/A
2:00 AM70 °FClear.5 mph21%30.09 "HgN/A
1:30 AM73 °FClear.6 mph16%30.09 "HgN/A
1:00 AM73 °FClear.8 mph15%30.09 "HgN/A
12:00 AM72 °FClear.8 mph20%30.09 "HgN/A
11:30 PM
Sep 17
73 °FClear.8 mph16%30.09 "HgN/A
11:00 PM75 °FClear.8 mph15%30.09 "HgN/A
10:30 PM75 °FClear.8 mph15%30.09 "HgN/A
10:00 PM77 °FClear.8 mph14%30.07 "HgN/A
Weather by CustomWeather, © 2014

See weather overviewHow to use our weather pages